QPF
0.00 0.00 0.00 0.00 0.00 0.00 0.00 0.00 0.00 0.00 0.00 0.00 0.00 0.00 0.00 0.00 0.00 0.00 0.00 0.00 0.00 0.00 0.00 0.00 0.00 0.00 0.00 0.00 0.00 0.00 0.00 0.00 0.00 0.00 0.00 0.00 0.00 0.00 0.00 0.00 0.00 0.00 0.00 0.00 0.00 0.00 0.00 0.00 0.00 0.00 0.00 0.00 0.00 0.00
0.00 0.00 0.00 0.00 0.00 0.01 0.00 0.00 0.00 0.00 0.00 0.00 0.00 0.00 0.00 0.00 0.00 0.00 0.00 0.00 0.00 0.00 0.00 0.00 0.00 0.00 0.00 0.00 0.00 0.00 0.00 0.00 0.00 0.00 0.00 0.00 0.00 0.00 0.00 0.00 0.00 0.00 0.00 0.00 0.00 0.00 0.00 0.00 0.00 0.00 0.00 0.00 0.00 0.00
0.00 0.00 0.00 0.00 0.00 0.00 0.01 0.00 0.00 0.00 0.00 0.00 0.00 0.00 0.00 0.00 0.00 0.00 0.00 0.00 0.00 0.00 0.00 0.00 0.00 0.00 0.00 0.00 0.00 0.00 0.00 0.00 0.00 0.00 0.00 0.00 0.00 0.00 0.00 0.00 0.00 0.00 0.00 0.00 0.00 0.00 0.00 0.00 0.00 0.00 0.00 0.00 0.00 0.00
0.00 0.00 0.00 0.00 0.00 0.00 0.00 0.01 0.01 0.01 0.00 0.00 0.00 0.00 0.00 0.00 0.00 0.00 0.00 0.00 0.00 0.00 0.00 0.00 0.00 0.00 0.00 0.00 0.00 0.00 0.00 0.00 0.00 0.00 0.00 0.00 0.00 0.00 0.00 0.00 0.00 0.00 0.00 0.00 0.00 0.00 0.00 0.00 0.00 0.00 0.00 0.00 0.00 0.00
0.00 0.00 0.00 0.00 0.00 0.00 0.00 0.00 0.01 0.01 0.01 0.00 0.00 0.00 0.00 0.00 0.00 0.00 0.00 0.00 0.00 0.00 0.00 0.00 0.00 0.00 0.00 0.00 0.00 0.00 0.00 0.00 0.00 0.00 0.00 0.00 0.00 0.00 0.00 0.00 0.00 0.00 0.00 0.00 0.00 0.00 0.00 0.00 0.00 0.00 0.00 0.00 0.00 0.00
0.00 0.00 0.00 0.00 0.00 0.00 0.00 0.00 0.00 0.00 0.01 0.01 0.01 0.00 0.00 0.00 0.00 0.00 0.00 0.00 0.00 0.00 0.00 0.00 0.00 0.00 0.00 0.00 0.00 0.00 0.00 0.00 0.00 0.00 0.00 0.00 0.00 0.00 0.00 0.00 0.00 0.00 0.00 0.00 0.00 0.00 0.00 0.00 0.00 0.00 0.00 0.00 0.00 0.00
0.00 0.00 0.00 0.00 0.00 0.00 0.00 0.00 0.00 0.00 0.00 0.01 0.01 0.01 0.00 0.00 0.00 0.00 0.00 0.00 0.00 0.00 0.00 0.00 0.00 0.00 0.00 0.00 0.00 0.00 0.00 0.00 0.00 0.00 0.00 0.00 0.00 0.00 0.00 0.00 0.00 0.00 0.00 0.00 0.00 0.00 0.00 0.00 0.00 0.00 0.00 0.00 0.00 0.00
0.00 0.00 0.00 0.00 0.00 0.00 0.00 0.00 0.00 0.00 0.00 0.01 0.02 0.02 0.00 0.00 0.00 0.00 0.00 0.00 0.00 0.00 0.00 0.00 0.00 0.00 0.00 0.00 0.00 0.00 0.00 0.00 0.00 0.00 0.00 0.00 0.00 0.00 0.00 0.00 0.00 0.00 0.00 0.00 0.00 0.00 0.00 0.00 0.00 0.00 0.00 0.00 0.00 0.00
0.00 0.00 0.00 0.00 0.00 0.00 0.00 0.00 0.00 0.00 0.00 0.00 0.02 0.03 0.02 0.00 0.00 0.00 0.00 0.00 0.00 0.00 0.00 0.00 0.00 0.00 0.00 0.00 0.00 0.00 0.00 0.00 0.00 0.00 0.00 0.00 0.00 0.00 0.00 0.00 0.00 0.00 0.00 0.00 0.00 0.00 0.00 0.00 0.00 0.00 0.00 0.00 0.00 0.00
0.00 0.00 0.00 0.00 0.00 0.00 0.00 0.00 0.00 0.00 0.00 0.01 0.04 0.03 0.01 0.00 0.00 0.00 0.00 0.00 0.00 0.00 0.00 0.00 0.00 0.00 0.00 0.00 0.00 0.00 0.00 0.00 0.00 0.00 0.00 0.00 0.00 0.00 0.00 0.00 0.00 0.00 0.00 0.00 0.00 0.00 0.00 0.00 0.00 0.00 0.00 0.00 0.00 0.00
0.00 0.00 0.00 0.00 0.00 0.00 0.00 0.00 0.00 0.02 0.01 0.02 0.02 0.01 0.00 0.00 0.00 0.00 0.00 0.00 0.00 0.00 0.00 0.00 0.00 0.00 0.00 0.00 0.00 0.00 0.00 0.00 0.00 0.00 0.00 0.00 0.00 0.00 0.00 0.00 0.00 0.00 0.00 0.00 0.00 0.00 0.00 0.00 0.00 0.00 0.00 0.00 0.00 0.00
0.00 0.00 0.00 0.00 0.00 0.00 0.00 0.01 0.01 0.04 0.01 0.01 0.01 0.00 0.00 0.00 0.00 0.00 0.00 0.00 0.00 0.00 0.00 0.00 0.00 0.00 0.00 0.00 0.00 0.00 0.00 0.00 0.00 0.00 0.00 0.00 0.00 0.00 0.00 0.00 0.00 0.00 0.00 0.00 0.00 0.00 0.00 0.00 0.00 0.00 0.00 0.00 0.00 0.00
0.00 0.00 0.00 0.00 0.01 0.01 0.01 0.03 0.03 0.04 0.05 0.05 0.03 0.01 0.00 0.00 0.00 0.00 0.00 0.00 0.00 0.00 0.00 0.00 0.00 0.00 0.00 0.00 0.00 0.00 0.00 0.00 0.00 0.00 0.00 0.00 0.00 0.00 0.00 0.00 0.00 0.00 0.00 0.00 0.00 0.00 0.00 0.00 0.00 0.00 0.00 0.00 0.00 0.00
0.00 0.00 0.00 0.00 0.01 0.02 0.03 0.04 0.05 0.08 0.05 0.03 0.01 0.00 0.00 0.00 0.00 0.00 0.00 0.00 0.00 0.00 0.00 0.00 0.00 0.00 0.00 0.00 0.00 0.00 0.00 0.00 0.00 0.00 0.00 0.00 0.00 0.00 0.00 0.00 0.00 0.00 0.00 0.00 0.00 0.00 0.00 0.00 0.00 0.00 0.00 0.00 0.00 0.00
0.00 0.00 0.00 0.00 0.01 0.03 0.03 0.04 0.05 0.07 0.04 0.02 0.00 0.00 0.00 0.00 0.00 0.00 0.00 0.00 0.00 0.00 0.00 0.00 0.00 0.00 0.00 0.00 0.00 0.00 0.00 0.00 0.00 0.00 0.00 0.00 0.00 0.00 0.00 0.00 0.00 0.00 0.00 0.00 0.00 0.00 0.00 0.00 0.00 0.00 0.00 0.00 0.00 0.00
0.01 0.01 0.00 0.01 0.01 0.03 0.04 0.06 0.05 0.03 0.03 0.01 0.00 0.00 0.00 0.00 0.00 0.00 0.00 0.00 0.00 0.00 0.00 0.00 0.00 0.00 0.00 0.00 0.00 0.00 0.00 0.00 0.00 0.00 0.00 0.00 0.00 0.00 0.00 0.00 0.00 0.00 0.00 0.00 0.00 0.00 0.00 0.00 0.00 0.00 0.00 0.00 0.00 0.00
0.04 0.01 0.00 0.00 0.01 0.03 0.06 0.05 0.01 0.01 0.00 0.00 0.00 0.00 0.00 0.00 0.00 0.00 0.00 0.00 0.00 0.00 0.00 0.00 0.00 0.00 0.00 0.00 0.00 0.00 0.00 0.00 0.00 0.00 0.00 0.00 0.00 0.00 0.00 0.00 0.00 0.00 0.00 0.00 0.00 0.00 0.00 0.00 0.00 0.00 0.00 0.00 0.00 0.00
0.02 0.00 0.01 0.01 0.02 0.03 0.04 0.02 0.00 0.00 0.00 0.00 0.00 0.00 0.00 0.00 0.00 0.00 0.00 0.00 0.00 0.00 0.00 0.01 0.03 0.02 0.01 0.00 0.00 0.00 0.00 0.00 0.00 0.00 0.00 0.00 0.00 0.00 0.00 0.00 0.00 0.00 0.00 0.00 0.00 0.00 0.00 0.00 0.00 0.00 0.00 0.00 0.00 0.00
0.01 0.01 0.01 0.03 0.04 0.03 0.02 0.01 0.00 0.00 0.00 0.00 0.00 0.00 0.00 0.00 0.00 0.00 0.00 0.00 0.00 0.01 0.02 0.02 0.01 0.00 0.00 0.00 0.00 0.00 0.00 0.00 0.00 0.00 0.00 0.00 0.00 0.00 0.00 0.00 0.00 0.00 0.00 0.00 0.00 0.00 0.00 0.00 0.00 0.00 0.00 0.00 0.00 0.00
0.04 0.04 0.02 0.02 0.04 0.02 0.00 0.01 0.00 0.00 0.00 0.00 0.00 0.00 0.00 0.00 0.00 0.00 0.00 0.00 0.01 0.02 0.02 0.01 0.00 0.00 0.00 0.00 0.01 0.00 0.00 0.00 0.00 0.00 0.00 0.00 0.00 0.00 0.00 0.00 0.00 0.00 0.00 0.00 0.00 0.00 0.00 0.00 0.00 0.00 0.00 0.00 0.00 0.00
0.07 0.04 0.06 0.05 0.04 0.01 0.00 0.00 0.00 0.00 0.00 0.00 0.00 0.00 0.00 0.00 0.00 0.00 0.00 0.03 0.03 0.01 0.00 0.00 0.00 0.00 0.00 0.00 0.00 0.00 0.00 0.00 0.00 0.00 0.00 0.00 0.00 0.00 0.00 0.00 0.00 0.00 0.00 0.00 0.00 0.00 0.00 0.00 0.00 0.00 0.00 0.00 0.00 0.00
0.03 0.03 0.04 0.03 0.01 0.00 0.01 0.00 0.00 0.00 0.00 0.00 0.00 0.00 0.00 0.00 0.00 0.00 0.00 0.01 0.00 0.00 0.00 0.00 0.00 0.00 0.00 0.00 0.00 0.00 0.00 0.00 0.00 0.00 0.00 0.00 0.00 0.00 0.00 0.00 0.00 0.00 0.00 0.00 0.00 0.00 0.00 0.00 0.00 0.00 0.00 0.00 0.00 0.00
0.01 0.01 0.00 0.00 0.01 0.00 0.00 0.00 0.00 0.00 0.00 0.00 0.00 0.00 0.00 0.00 0.00 0.00 0.00 0.00 0.00 0.00 0.00 0.00 0.00 0.00 0.00 0.00 0.00 0.00 0.00 0.00 0.00 0.00 0.00 0.00 0.00 0.00 0.00 0.00 0.00 0.00 0.00 0.00 0.00 0.00 0.00 0.00 0.00 0.00 0.00 0.00 0.00 0.00
0.00 0.00 0.00 0.00 0.00 0.00 0.00 0.00 0.00 0.00 0.00 0.00 0.00 0.00 0.00 0.00 0.00 0.00 0.00 0.00 0.00 0.00 0.00 0.00 0.00 0.00 0.00 0.00 0.00 0.00 0.00 0.00 0.00 0.00 0.00 0.00 0.00 0.00 0.00 0.00 0.00 0.00 0.00 0.00 0.00 0.00 0.00 0.00 0.00 0.00 0.00 0.00 0.00 0.00
0.01 0.00 0.00 0.00 0.00 0.00 0.00 0.00 0.00 0.00 0.00 0.00 0.00 0.00 0.00 0.00 0.00 0.00 0.00 0.00 0.00 0.00 0.00 0.00 0.00 0.00 0.00 0.00 0.00 0.00 0.00 0.00 0.00 0.00 0.00 0.00 0.00 0.00 0.00 0.00 0.00 0.00 0.00 0.00 0.00 0.00 0.00 0.00 0.00 0.00 0.00 0.00 0.00 0.00
0.00 0.00 0.00 0.00 0.00 0.00 0.00 0.00 0.00 0.00 0.00 0.00 0.00 0.00 0.00 0.00 0.00 0.00 0.00 0.00 0.00 0.00 0.00 0.00 0.00 0.00 0.00 0.00 0.00 0.00 0.00 0.00 0.00 0.00 0.00 0.00 0.00 0.00 0.00 0.00 0.00 0.00 0.00 0.00 0.00 0.00 0.00 0.00 0.00 0.00 0.00 0.00 0.00 0.00
0.00 0.00 0.00 0.00 0.00 0.00 0.00 0.00 0.00 0.00 0.00 0.00 0.00 0.00 0.00 0.00 0.00 0.00 0.00 0.00 0.00 0.00 0.00 0.00 0.00 0.00 0.00 0.00 0.00 0.00 0.00 0.00 0.00 0.00 0.00 0.00 0.00 0.00 0.00 0.00 0.00 0.00 0.00 0.00 0.00 0.00 0.00 0.00 0.00 0.00 0.00 0.00 0.00 0.00
0.00 0.00 0.00 0.00 0.00 0.00 0.00 0.00 0.00 0.00 0.00 0.00 0.00 0.00 0.00 0.00 0.00 0.00 0.00 0.00 0.00 0.00 0.00 0.00 0.00 0.00 0.00 0.00 0.00 0.00 0.00 0.00 0.00 0.00 0.00 0.00 0.00 0.00 0.00 0.00 0.00 0.00 0.00 0.00 0.00 0.00 0.00 0.00 0.00 0.00 0.00 0.00 0.00 0.00
0.00 0.00 0.00 0.00 0.00 0.00 0.00 0.00 0.00 0.00 0.00 0.00 0.00 0.00 0.00 0.00 0.00 0.00 0.00 0.00 0.00 0.00 0.00 0.00 0.00 0.00 0.00 0.00 0.00 0.00 0.00 0.00 0.00 0.00 0.00 0.00 0.00 0.00 0.00 0.00 0.00 0.00 0.00 0.00 0.00 0.00 0.00 0.00 0.00 0.00 0.00 0.00 0.00 0.00
0.00 0.00 0.00 0.00 0.00 0.00 0.00 0.00 0.00 0.00 0.00 0.00 0.00 0.00 0.00 0.00 0.00 0.00 0.00 0.00 0.00 0.00 0.00 0.00 0.00 0.00 0.00 0.00 0.00 0.00 0.00 0.00 0.00 0.00 0.00 0.00 0.00 0.00 0.00 0.00 0.00 0.00 0.00 0.00 0.00 0.00 0.00 0.00 0.00 0.00 0.00 0.00 0.00 0.00
0.00 0.00 0.00 0.00 0.00 0.00 0.00 0.00 0.00 0.00 0.00 0.00 0.00 0.00 0.00 0.00 0.00 0.00 0.00 0.00 0.00 0.00 0.00 0.00 0.00 0.00 0.00 0.00 0.00 0.00 0.00 0.00 0.00 0.00 0.00 0.00 0.00 0.00 0.00 0.00 0.00 0.00 0.00 0.00 0.00 0.00 0.00 0.00 0.00 0.00 0.00 0.00 0.00 0.00
0.00 0.00 0.00 0.00 0.00 0.00 0.00 0.00 0.00 0.00 0.00 0.00 0.00 0.00 0.00 0.00 0.00 0.00 0.00 0.00 0.00 0.00 0.00 0.00 0.00 0.00 0.00 0.00 0.00 0.00 0.00 0.00 0.00 0.00 0.00 0.00 0.00 0.00 0.00 0.00 0.00 0.00 0.00 0.00 0.00 0.00 0.00 0.00 0.00 0.00 0.00 0.00 0.00 0.00
0.00 0.00 0.00 0.00 0.00 0.00 0.00 0.00 0.00 0.00 0.00 0.00 0.00 0.00 0.00 0.00 0.00 0.00 0.00 0.00 0.00 0.00 0.00 0.00 0.00 0.00 0.00 0.00 0.00 0.00 0.00 0.00 0.00 0.00 0.00 0.00 0.00 0.00 0.00 0.00 0.00 0.00 0.00 0.00 0.00 0.00 0.00 0.00 0.00 0.00 0.00 0.00 0.00 0.00
MSLP
1026.46 1026.35 1026.26 1026.12 1025.90 1025.81 1025.87 1025.91 1025.86 1025.81 1025.79 1025.78 1025.76 1025.61 1025.39 1025.04 1024.73 1024.60 1024.94 1024.64 1024.95 1024.93 1023.95 1023.31 1023.04 1023.16 1023.59 1024.03 1024.90 1025.62 1026.45 1026.91 1027.75 1028.49 1028.99 1029.01 1028.76 1028.13 1027.84 1027.06 1026.91 1027.55 1028.38 1028.79 1029.06 1028.70 1025.05 1021.65 1021.80 1022.05 1021.46 1021.34 1021.60 1021.55
1026.45 1026.33 1026.18 1026.01 1025.86 1025.63 1025.43 1025.50 1025.58 1025.62 1025.66 1025.69 1025.72 1025.68 1025.52 1025.36 1025.15 1024.86 1025.26 1024.84 1024.82 1025.26 1024.48 1023.46 1022.93 1022.67 1022.67 1022.93 1023.86 1024.81 1025.20 1025.56 1026.40 1027.57 1028.38 1028.76 1028.97 1028.50 1028.03 1027.56 1026.27 1026.44 1025.25 1025.60 1025.73 1023.54 1021.56 1021.01 1020.81 1020.82 1021.11 1021.36 1021.41 1021.35
1026.15 1026.11 1026.02 1025.90 1025.76 1025.55 1025.35 1025.18 1025.16 1025.33 1025.46 1025.56 1025.57 1025.64 1025.64 1025.54 1025.38 1025.30 1025.63 1025.51 1025.28 1025.55 1024.77 1023.94 1022.76 1022.18 1022.24 1022.37 1022.59 1023.83 1024.79 1024.70 1025.55 1025.81 1027.11 1028.11 1028.67 1028.25 1028.21 1027.00 1025.76 1024.51 1024.07 1024.21 1023.66 1020.96 1020.89 1020.88 1020.56 1020.58 1020.92 1021.25 1021.24 1021.30
1025.83 1025.81 1025.75 1025.61 1025.52 1025.46 1025.33 1025.16 1024.97 1024.86 1024.92 1025.18 1025.33 1025.39 1025.49 1025.62 1025.60 1025.52 1025.86 1025.81 1025.84 1025.92 1025.83 1023.70 1022.53 1022.43 1021.92 1022.25 1022.47 1022.83 1023.48 1024.31 1025.08 1025.90 1027.00 1028.00 1028.20 1027.51 1027.32 1026.16 1025.34 1023.74 1023.50 1022.88 1021.86 1020.80 1020.53 1020.15 1020.19 1020.49 1020.79 1021.08 1021.34 1021.37
1025.36 1025.36 1025.34 1025.29 1025.21 1025.15 1025.05 1024.99 1024.84 1024.67 1024.56 1024.64 1024.90 1025.11 1025.22 1025.39 1025.52 1025.71 1025.79 1025.44 1025.48 1025.89 1025.82 1024.51 1023.19 1022.54 1022.33 1022.51 1022.73 1022.84 1023.58 1024.61 1025.59 1026.50 1027.28 1027.72 1027.45 1027.42 1026.80 1026.25 1023.57 1022.23 1021.40 1021.71 1020.57 1019.92 1020.17 1020.20 1020.09 1020.31 1020.64 1021.11 1021.40 1021.05
1024.81 1024.82 1024.84 1024.80 1024.83 1024.80 1024.75 1024.66 1024.61 1024.59 1024.49 1024.37 1024.43 1024.71 1024.97 1025.25 1025.49 1025.78 1025.61 1025.19 1025.26 1025.37 1025.86 1025.37 1023.81 1022.97 1022.77 1022.74 1023.03 1023.49 1023.74 1024.46 1025.30 1026.15 1026.77 1026.49 1026.01 1026.43 1026.48 1024.80 1020.57 1019.94 1019.56 1019.34 1019.31 1019.63 1019.94 1019.86 1020.01 1020.25 1020.76 1021.10 1020.96 1020.57
1024.12 1024.20 1024.25 1024.28 1024.26 1024.34 1024.36 1024.30 1024.24 1024.20 1024.13 1024.07 1023.94 1024.14 1024.56 1024.96 1025.44 1025.56 1025.26 1025.05 1024.92 1025.22 1025.89 1025.65 1024.42 1023.57 1023.14 1023.31 1023.81 1024.07 1024.07 1024.52 1024.84 1025.56 1025.91 1025.83 1025.61 1025.59 1024.90 1022.44 1019.09 1018.85 1018.82 1018.92 1019.00 1019.47 1019.60 1019.72 1020.04 1020.46 1020.77 1020.59 1020.45 1020.26
1023.45 1023.63 1023.70 1023.79 1023.81 1023.79 1023.86 1023.91 1023.88 1023.82 1023.76 1023.77 1023.73 1023.81 1024.12 1024.59 1025.12 1025.25 1024.91 1024.77 1024.89 1025.38 1025.81 1025.93 1024.96 1024.41 1023.51 1023.96 1024.50 1024.33 1024.88 1025.09 1025.33 1025.32 1025.50 1025.37 1025.05 1024.42 1022.27 1017.96 1018.15 1018.33 1018.51 1018.61 1018.42 1018.69 1019.16 1019.59 1020.05 1020.23 1020.26 1020.51 1020.35 1020.04
1022.81 1022.91 1023.07 1023.15 1023.20 1023.27 1023.37 1023.43 1023.39 1023.39 1023.42 1023.39 1023.40 1023.36 1023.90 1024.43 1024.42 1024.24 1024.00 1024.50 1025.05 1025.42 1025.33 1025.14 1024.87 1024.03 1023.65 1024.02 1024.40 1024.83 1025.02 1025.59 1025.29 1025.01 1024.78 1024.78 1023.71 1021.68 1017.56 1017.74 1017.39 1017.51 1017.86 1017.76 1017.87 1018.52 1019.16 1019.56 1019.85 1020.08 1020.28 1020.22 1020.01 1019.62
1021.86 1022.11 1022.31 1022.48 1022.53 1022.66 1022.88 1022.95 1023.02 1023.05 1023.18 1023.27 1023.58 1023.88 1023.67 1023.73 1023.89 1024.06 1024.62 1024.88 1024.75 1024.18 1024.06 1023.23 1023.66 1023.73 1023.55 1024.06 1024.64 1025.07 1025.08 1025.30 1025.23 1024.05 1023.97 1023.46 1020.47 1017.36 1016.70 1015.87 1015.85 1016.36 1016.83 1017.40 1018.01 1018.58 1019.00 1019.46 1019.77 1019.96 1019.95 1019.79 1019.60 1019.32
1020.92 1021.23 1021.43 1021.63 1021.78 1022.04 1022.25 1022.46 1022.58 1022.86 1023.12 1023.44 1023.58 1023.61 1023.80 1023.72 1023.91 1024.16 1024.41 1023.96 1023.36 1022.87 1022.19 1021.57 1021.80 1022.52 1022.75 1023.03 1023.69 1023.94 1024.44 1024.47 1024.66 1023.57 1023.60 1021.95 1018.77 1016.14 1014.89 1014.64 1014.59 1015.33 1015.92 1016.49 1016.94 1017.52 1018.17 1018.83 1019.36 1019.51 1019.48 1019.36 1019.27 1019.01
1019.94 1020.21 1020.53 1020.67 1020.88 1021.23 1021.51 1021.77 1022.06 1022.87 1023.09 1023.21 1023.44 1023.78 1024.24 1024.28 1024.14 1023.86 1022.74 1022.65 1022.39 1021.77 1021.43 1021.23 1021.40 1021.57 1021.93 1021.83 1022.32 1023.10 1023.35 1023.93 1023.33 1022.98 1023.08 1020.28 1015.67 1014.46 1014.41 1014.11 1014.18 1014.64 1015.12 1015.91 1016.55 1017.46 1018.14 1018.57 1018.88 1019.11 1019.12 1019.02 1018.91 1018.71
1018.82 1019.11 1019.34 1019.63 1019.88 1020.30 1020.61 1020.81 1021.25 1022.03 1022.89 1023.36 1023.74 1024.22 1024.40 1024.16 1023.58 1022.25 1021.67 1021.33 1020.99 1020.58 1020.42 1020.62 1021.10 1021.08 1021.47 1021.49 1021.91 1022.32 1022.54 1022.53 1022.26 1022.42 1020.28 1016.47 1014.62 1013.97 1013.85 1013.83 1014.00 1014.34 1014.92 1015.67 1016.61 1017.24 1017.81 1018.28 1018.50 1018.61 1018.63 1018.58 1018.49 1018.37
1017.59 1017.87 1018.15 1018.40 1018.76 1019.21 1019.62 1019.97 1020.44 1021.33 1022.48 1022.75 1023.23 1023.97 1023.50 1022.18 1020.85 1019.25 1018.83 1018.94 1019.10 1019.30 1019.48 1020.04 1020.71 1020.65 1020.74 1021.16 1021.21 1021.32 1021.24 1021.44 1021.72 1020.75 1017.52 1015.07 1013.18 1013.18 1013.20 1013.47 1013.94 1014.38 1014.91 1015.76 1016.49 1017.04 1017.50 1017.87 1018.14 1018.17 1018.11 1018.14 1018.15 1018.07
1016.44 1016.62 1016.82 1017.14 1017.64 1018.05 1018.34 1018.82 1019.47 1020.35 1021.16 1021.62 1022.04 1021.54 1020.02 1018.42 1017.68 1017.65 1018.11 1018.42 1018.21 1018.37 1019.19 1020.06 1020.23 1020.20 1020.17 1020.21 1020.17 1020.37 1020.55 1020.18 1018.96 1016.57 1014.64 1013.01 1012.72 1013.05 1012.96 1013.15 1013.57 1014.21 1014.94 1015.70 1016.21 1016.73 1017.13 1017.48 1017.68 1017.69 1017.69 1017.78 1017.79 1017.72
1015.22 1015.27 1015.29 1015.90 1016.36 1016.78 1017.24 1017.82 1018.53 1019.22 1019.39 1019.78 1019.78 1018.54 1017.88 1017.74 1016.78 1017.43 1017.54 1017.70 1017.64 1018.13 1019.05 1019.54 1019.56 1019.25 1018.54 1018.51 1018.49 1018.44 1018.66 1016.84 1014.29 1013.16 1012.56 1012.47 1012.60 1012.89 1012.43 1012.67 1013.14 1013.75 1014.48 1015.26 1015.92 1016.31 1016.67 1017.05 1017.21 1017.19 1017.22 1017.34 1017.37 1017.34
1013.93 1013.40 1014.00 1014.53 1015.06 1015.59 1016.12 1017.02 1017.35 1017.25 1017.83 1017.56 1016.76 1016.35 1016.25 1015.73 1015.70 1016.12 1016.59 1016.86 1017.09 1017.95 1018.22 1018.59 1018.43 1017.17 1017.28 1016.98 1016.92 1016.52 1014.82 1012.53 1012.20 1011.96 1011.53 1011.34 1011.95 1011.72 1011.84 1012.42 1012.90 1013.57 1014.36 1015.03 1015.61 1015.95 1016.25 1016.50 1016.65 1016.78 1016.91 1016.92 1016.99 1016.98
1012.09 1012.17 1012.54 1013.22 1013.95 1014.65 1015.03 1015.35 1015.43 1015.78 1015.97 1015.50 1015.56 1014.48 1014.83 1014.14 1014.63 1015.16 1015.37 1015.92 1016.56 1016.92 1017.08 1016.94 1016.82 1016.53 1016.37 1014.89 1014.37 1012.79 1011.60 1011.11 1011.34 1011.21 1011.24 1011.23 1011.17 1011.10 1011.43 1011.95 1012.42 1013.14 1013.92 1014.61 1015.09 1015.42 1015.80 1016.10 1016.23 1016.37 1016.44 1016.55 1016.68 1016.63
1010.63 1010.94 1011.51 1012.08 1012.74 1013.35 1013.43 1013.47 1014.09 1014.05 1013.81 1013.95 1013.86 1013.58 1013.64 1013.30 1013.39 1013.79 1014.24 1014.45 1014.42 1014.93 1015.43 1015.63 1015.08 1013.95 1013.17 1012.52 1012.30 1011.69 1011.34 1011.13 1010.61 1010.73 1010.55 1010.24 1010.21 1010.63 1011.06 1011.53 1012.12 1012.89 1013.53 1014.17 1014.71 1014.94 1015.27 1015.44 1015.57 1015.84 1016.01 1016.16 1016.32 1016.31
1009.15 1009.61 1010.18 1010.67 1011.50 1011.66 1012.00 1012.84 1013.02 1012.56 1012.45 1012.22 1012.51 1012.63 1012.85 1012.39 1012.37 1012.70 1012.92 1013.16 1013.64 1014.13 1013.84 1012.97 1011.69 1011.06 1010.90 1010.17 1009.59 1009.74 1010.04 1010.02 1010.24 1010.56 1010.61 1009.88 1009.72 1010.21 1010.72 1011.09 1011.63 1012.24 1013.15 1013.87 1014.29 1014.61 1014.89 1014.97 1015.13 1015.34 1015.57 1015.74 1015.84 1015.84
1008.02 1007.85 1008.81 1009.34 1009.80 1010.42 1010.95 1011.46 1011.73 1011.35 1011.06 1011.22 1011.12 1011.53 1011.56 1011.49 1011.53 1011.64 1011.71 1011.83 1012.47 1011.83 1010.73 1009.77 1009.43 1008.71 1008.13 1008.38 1008.64 1008.56 1008.55 1008.91 1008.80 1009.76 1009.62 1009.70 1009.44 1009.83 1010.29 1010.77 1011.30 1012.01 1012.75 1013.34 1013.87 1014.15 1014.26 1014.46 1014.56 1014.87 1015.09 1015.29 1015.37 1015.40
1005.87 1006.67 1007.54 1008.03 1008.82 1009.87 1010.26 1009.90 1010.12 1010.31 1010.70 1010.04 1010.47 1010.40 1010.66 1010.87 1010.66 1010.57 1010.58 1010.85 1009.98 1008.29 1007.64 1007.45 1007.18 1007.16 1007.44 1007.52 1007.30 1007.46 1007.37 1007.63 1008.04 1008.04 1008.09 1008.64 1009.23 1009.74 1010.14 1010.29 1011.20 1011.73 1012.08 1012.45 1012.98 1013.39 1013.61 1013.83 1014.00 1014.38 1014.65 1014.83 1014.98 1014.98
1005.27 1006.18 1006.76 1008.08 1008.90 1009.01 1008.90 1008.81 1009.35 1009.72 1009.55 1009.47 1009.70 1009.96 1010.15 1010.12 1009.88 1009.76 1009.90 1008.58 1006.54 1005.79 1005.87 1006.10 1005.65 1005.86 1006.32 1006.11 1006.38 1006.20 1006.24 1006.63 1007.12 1007.31 1007.46 1007.95 1008.17 1008.38 1008.94 1009.54 1010.03 1010.77 1011.50 1011.87 1012.18 1012.73 1013.11 1013.29 1013.58 1014.04 1014.19 1014.43 1014.54 1014.57
1003.80 1005.51 1006.01 1006.94 1007.48 1007.87 1007.84 1008.34 1008.56 1008.62 1008.61 1008.72 1008.91 1008.93 1009.27 1009.33 1009.49 1009.41 1008.37 1006.34 1004.93 1005.03 1005.12 1004.99 1005.39 1005.43 1005.41 1005.32 1005.10 1005.17 1005.42 1005.70 1005.97 1006.43 1006.89 1007.65 1007.92 1008.14 1008.40 1008.83 1009.43 1009.72 1010.03 1010.75 1011.66 1012.21 1012.58 1012.90 1013.21 1013.55 1013.77 1013.96 1014.03 1014.06
1003.79 1004.78 1005.19 1005.73 1006.26 1006.65 1007.22 1007.50 1007.37 1007.64 1007.63 1007.91 1008.19 1008.49 1008.68 1008.94 1008.89 1008.38 1006.86 1005.30 1004.93 1004.76 1004.35 1004.28 1004.49 1004.50 1004.38 1003.98 1004.11 1004.27 1004.47 1004.93 1005.54 1005.86 1006.23 1006.81 1006.97 1007.70 1008.25 1008.77 1009.19 1009.29 1009.70 1010.56 1011.31 1011.75 1012.22 1012.53 1012.84 1013.09 1013.34 1013.51 1013.59 1013.73
1003.00 1003.84 1004.21 1004.47 1005.28 1005.53 1005.94 1006.46 1006.61 1006.90 1007.05 1007.51 1007.58 1007.67 1008.17 1008.50 1008.55 1007.50 1005.96 1005.06 1004.80 1004.70 1004.37 1004.34 1004.35 1004.24 1003.98 1003.69 1003.69 1003.76 1003.97 1004.26 1004.64 1005.27 1005.52 1005.84 1006.06 1006.42 1007.29 1008.15 1008.81 1009.29 1009.42 1009.76 1010.51 1011.17 1011.65 1012.02 1012.36 1012.67 1012.99 1013.17 1013.32 1013.54
1002.59 1003.08 1003.25 1003.24 1003.67 1004.16 1004.99 1005.30 1005.33 1005.66 1005.98 1006.08 1006.58 1007.31 1007.76 1008.09 1007.52 1006.08 1005.31 1005.29 1005.32 1005.18 1004.94 1004.62 1004.37 1004.21 1003.89 1003.53 1003.40 1003.27 1003.33 1003.47 1003.72 1004.04 1004.32 1004.91 1005.26 1005.53 1006.10 1007.09 1007.81 1008.15 1008.79 1009.40 1009.94 1010.44 1010.99 1011.51 1011.90 1012.33 1012.70 1012.94 1013.20 1013.46
1001.72 1002.22 1002.33 1002.95 1003.39 1003.64 1004.11 1004.40 1004.59 1004.77 1004.74 1004.93 1005.70 1006.14 1006.26 1006.29 1006.08 1005.96 1005.93 1005.78 1005.75 1005.50 1005.24 1004.66 1004.23 1004.01 1003.66 1003.34 1003.17 1003.37 1003.68 1003.82 1004.06 1004.35 1004.85 1005.45 1005.70 1005.94 1006.25 1006.63 1007.09 1007.73 1008.37 1008.94 1009.47 1009.90 1010.47 1010.96 1011.43 1011.96 1012.37 1012.71 1013.07 1013.40
1001.36 1001.54 1001.92 1002.94 1003.27 1003.45 1003.70 1003.79 1003.84 1003.75 1003.92 1004.38 1004.89 1005.23 1005.47 1005.67 1005.94 1006.09 1006.01 1005.96 1005.84 1005.48 1005.17 1004.94 1004.67 1004.45 1004.31 1004.12 1004.00 1004.03 1004.00 1004.00 1004.35 1004.90 1005.30 1006.00 1006.55 1006.99 1006.85 1006.97 1007.36 1007.93 1008.39 1008.80 1009.18 1009.64 1010.15 1010.60 1011.06 1011.59 1012.05 1012.53 1012.94 1013.17
1001.33 1001.40 1002.00 1002.71 1003.20 1003.54 1003.75 1003.76 1003.80 1003.74 1003.85 1004.20 1004.48 1005.08 1005.57 1006.07 1006.25 1006.20 1006.26 1006.16 1006.02 1005.80 1005.44 1005.19 1004.95 1004.82 1004.94 1004.86 1004.90 1004.80 1004.75 1004.63 1004.54 1004.81 1005.37 1005.96 1006.42 1006.94 1007.22 1007.47 1007.77 1008.13 1008.47 1008.86 1009.27 1009.71 1010.01 1010.44 1010.95 1011.52 1012.06 1012.55 1012.76 1012.88
1001.09 1001.52 1002.35 1002.97 1003.46 1003.78 1003.88 1003.93 1003.97 1004.08 1004.24 1004.52 1004.65 1005.04 1005.54 1005.98 1006.31 1006.33 1006.43 1006.13 1005.76 1005.58 1005.59 1005.48 1005.40 1005.32 1005.28 1005.31 1005.34 1005.39 1005.59 1005.55 1005.44 1005.50 1005.59 1005.86 1006.33 1006.83 1007.29 1007.65 1007.93 1008.25 1008.62 1009.08 1009.47 1009.81 1010.13 1010.62 1011.03 1011.48 1011.88 1012.15 1012.25 1012.31
1001.55 1002.12 1002.71 1003.33 1003.80 1003.90 1003.93 1004.19 1004.43 1004.58 1004.70 1004.88 1005.10 1005.23 1005.58 1005.89 1006.37 1006.63 1006.69 1006.39 1006.06 1005.99 1005.90 1005.85 1005.79 1005.74 1005.63 1005.62 1005.65 1005.71 1005.78 1006.00 1006.05 1005.94 1005.98 1006.28 1006.65 1006.92 1007.20 1007.50 1007.84 1008.19 1008.67 1009.11 1009.51 1009.96 1010.35 1010.71 1011.10 1011.39 1011.60 1011.74 1011.90 1012.09
1002.53 1002.87 1003.13 1003.58 1003.97 1004.10 1004.35 1004.57 1004.84 1005.10 1005.17 1005.19 1005.22 1005.21 1005.36 1005.73 1006.23 1006.78 1006.77 1006.67 1006.63 1006.47 1006.39 1006.29 1006.18 1006.09 1006.02 1005.96 1005.90 1006.01 1006.09 1006.32 1006.29 1006.25 1006.27 1006.38 1006.54 1006.76 1007.02 1007.35 1007.73 1008.16 1008.64 1009.12 1009.52 1009.94 1010.31 1010.63 1010.92 1011.13 1011.30 1011.48 1011.66 1011.84
Thickness
5558 5560 5562 5564 5566 5568 5569 5569 5570 5571 5572 5573 5574 5575 5578 5581 5582 5585 5581 5584 5580 5576 5584 5594 5594 5587 5580 5569 5562 5560 5551 5547 5529 5522 5511 5517 5499 5524 5518 5524 5519 5502 5475 5463 5456 5429 5463 5516 5507 5489 5486 5480 5469 5459
5547 5549 5551 5553 5555 5557 5559 5559 5559 5559 5560 5560 5561 5562 5563 5564 5566 5570 5566 5569 5568 5563 5572 5578 5580 5580 5580 5574 5559 5548 5553 5542 5533 5516 5503 5487 5499 5482 5498 5496 5515 5500 5517 5484 5482 5488 5514 5504 5502 5490 5477 5465 5457 5446
5538 5539 5540 5542 5543 5545 5547 5548 5548 5547 5547 5548 5548 5548 5549 5548 5550 5553 5550 5551 5552 5547 5553 5557 5565 5571 5568 5565 5561 5543 5533 5538 5529 5524 5505 5490 5488 5482 5477 5485 5501 5513 5507 5491 5494 5522 5509 5498 5488 5479 5468 5456 5446 5435
5531 5532 5532 5534 5535 5535 5536 5537 5538 5538 5538 5536 5536 5536 5535 5534 5534 5536 5535 5535 5533 5528 5528 5550 5557 5555 5556 5551 5548 5542 5536 5525 5516 5508 5496 5472 5472 5481 5471 5486 5484 5508 5497 5484 5488 5505 5497 5491 5482 5471 5459 5448 5436 5424
5523 5524 5525 5526 5526 5526 5527 5527 5528 5528 5528 5528 5526 5525 5524 5523 5522 5521 5522 5524 5522 5517 5514 5525 5536 5541 5538 5533 5531 5529 5520 5508 5497 5489 5476 5470 5469 5464 5460 5462 5480 5508 5498 5472 5496 5495 5484 5475 5474 5464 5452 5438 5424 5415
5515 5515 5516 5517 5517 5517 5517 5517 5517 5517 5517 5518 5517 5515 5512 5510 5509 5507 5510 5513 5511 5508 5498 5494 5519 5528 5525 5521 5515 5509 5504 5495 5485 5478 5471 5471 5474 5466 5446 5449 5512 5509 5498 5498 5495 5482 5472 5466 5459 5451 5438 5425 5416 5409
5508 5508 5507 5507 5507 5506 5506 5506 5506 5506 5507 5506 5506 5504 5501 5497 5495 5494 5499 5498 5498 5496 5487 5478 5485 5509 5511 5507 5497 5490 5489 5481 5477 5468 5460 5460 5460 5458 5436 5476 5512 5496 5493 5486 5481 5473 5464 5458 5447 5435 5424 5419 5411 5401
5500 5499 5498 5497 5497 5496 5495 5494 5494 5494 5494 5493 5492 5490 5488 5484 5482 5484 5485 5482 5479 5475 5473 5469 5470 5478 5490 5482 5476 5476 5466 5461 5460 5459 5457 5456 5454 5455 5467 5508 5498 5490 5484 5478 5474 5463 5456 5447 5434 5426 5420 5409 5401 5393
5490 5489 5488 5487 5486 5485 5483 5481 5481 5481 5480 5479 5477 5476 5472 5470 5471 5475 5472 5466 5463 5461 5453 5457 5467 5454 5473 5467 5461 5454 5450 5435 5442 5440 5450 5442 5442 5464 5504 5492 5489 5481 5475 5475 5470 5456 5444 5437 5426 5416 5408 5400 5393 5390
5481 5480 5478 5477 5476 5474 5471 5469 5467 5465 5464 5462 5460 5454 5456 5458 5457 5453 5444 5443 5447 5453 5452 5463 5455 5445 5455 5441 5424 5428 5418 5418 5433 5443 5435 5441 5468 5502 5495 5493 5493 5480 5474 5464 5455 5444 5435 5425 5414 5408 5401 5395 5391 5384
5471 5468 5467 5464 5463 5461 5458 5454 5451 5447 5446 5442 5440 5441 5435 5434 5434 5432 5428 5435 5437 5442 5449 5464 5469 5450 5443 5439 5433 5426 5418 5420 5414 5426 5424 5429 5460 5488 5490 5492 5492 5482 5468 5459 5453 5443 5430 5419 5408 5401 5395 5390 5383 5378
5459 5458 5455 5453 5451 5447 5444 5440 5433 5427 5426 5421 5422 5417 5412 5409 5408 5413 5427 5422 5422 5432 5432 5444 5444 5447 5433 5431 5427 5416 5417 5407 5410 5410 5406 5435 5483 5482 5482 5482 5476 5471 5463 5452 5442 5429 5418 5411 5403 5394 5388 5382 5377 5371
5448 5447 5445 5443 5440 5435 5431 5426 5418 5411 5404 5398 5395 5390 5387 5386 5395 5409 5405 5411 5412 5411 5415 5416 5414 5418 5411 5416 5411 5408 5408 5406 5403 5403 5427 5464 5476 5474 5472 5470 5466 5459 5453 5442 5430 5420 5410 5402 5396 5390 5383 5377 5371 5365
5438 5437 5435 5434 5430 5425 5419 5412 5403 5390 5382 5377 5371 5366 5369 5394 5400 5420 5411 5409 5409 5404 5404 5400 5390 5400 5399 5401 5400 5406 5402 5397 5382 5392 5433 5458 5478 5467 5464 5459 5455 5450 5442 5430 5420 5410 5402 5395 5387 5384 5379 5371 5365 5358
5427 5428 5428 5426 5419 5413 5408 5400 5389 5376 5367 5361 5357 5368 5381 5409 5411 5410 5403 5401 5404 5401 5394 5386 5383 5387 5386 5391 5393 5393 5394 5391 5400 5428 5440 5460 5463 5452 5452 5450 5447 5438 5429 5419 5410 5403 5395 5387 5380 5377 5372 5365 5359 5354
5415 5419 5424 5414 5408 5402 5395 5387 5378 5369 5359 5354 5356 5379 5393 5397 5421 5400 5397 5395 5393 5392 5379 5374 5375 5377 5386 5387 5393 5395 5389 5406 5441 5445 5452 5454 5449 5439 5444 5447 5441 5430 5421 5411 5401 5395 5388 5380 5373 5371 5366 5359 5353 5349
5403 5419 5411 5404 5397 5391 5385 5374 5368 5364 5352 5352 5377 5388 5394 5407 5416 5401 5393 5391 5388 5382 5381 5372 5374 5388 5381 5387 5384 5386 5407 5440 5451 5449 5446 5448 5441 5440 5437 5434 5427 5420 5410 5400 5392 5386 5380 5375 5368 5364 5357 5352 5347 5344
5403 5405 5401 5393 5385 5379 5375 5370 5365 5354 5357 5367 5372 5396 5388 5403 5402 5387 5386 5382 5376 5374 5370 5368 5369 5371 5380 5383 5385 5414 5426 5438 5439 5438 5434 5432 5433 5433 5431 5427 5421 5412 5401 5392 5385 5379 5373 5367 5363 5356 5351 5346 5341 5338
5394 5392 5389 5384 5377 5370 5368 5368 5358 5357 5365 5363 5366 5377 5382 5386 5388 5385 5382 5380 5382 5372 5367 5364 5368 5380 5390 5391 5395 5408 5416 5421 5427 5424 5427 5429 5429 5425 5423 5416 5410 5401 5392 5384 5376 5372 5365 5362 5358 5351 5346 5341 5336 5333
5384 5383 5381 5377 5369 5365 5360 5351 5349 5358 5362 5370 5370 5370 5374 5382 5381 5380 5379 5378 5371 5366 5365 5369 5388 5398 5391 5406 5415 5413 5411 5413 5409 5407 5411 5419 5420 5417 5413 5410 5405 5395 5383 5374 5370 5368 5360 5356 5352 5346 5341 5337 5332 5330
5374 5382 5373 5371 5367 5360 5355 5350 5350 5357 5362 5363 5372 5372 5371 5371 5373 5372 5375 5375 5362 5368 5377 5389 5392 5401 5407 5405 5402 5401 5400 5401 5405 5403 5407 5408 5409 5408 5402 5396 5391 5385 5377 5370 5363 5357 5358 5349 5346 5340 5336 5332 5329 5327
5380 5373 5369 5366 5356 5348 5348 5352 5358 5357 5360 5371 5366 5370 5366 5365 5369 5368 5368 5364 5370 5393 5399 5400 5399 5399 5394 5393 5397 5395 5400 5396 5397 5403 5408 5404 5394 5392 5390 5392 5382 5376 5371 5367 5361 5354 5348 5344 5341 5335 5331 5327 5325 5323
5368 5364 5360 5351 5349 5351 5356 5356 5357 5355 5363 5367 5365 5364 5365 5366 5364 5366 5364 5374 5398 5406 5402 5397 5399 5394 5385 5391 5390 5395 5393 5388 5388 5392 5398 5394 5394 5397 5392 5385 5382 5373 5363 5357 5354 5347 5342 5341 5336 5329 5326 5323 5320 5318
5373 5361 5362 5358 5355 5353 5349 5351 5356 5359 5361 5366 5369 5369 5362 5363 5360 5359 5371 5384 5408 5402 5395 5392 5384 5383 5384 5384 5385 5387 5387 5383 5383 5384 5386 5382 5383 5383 5384 5381 5374 5369 5365 5356 5347 5340 5336 5334 5330 5325 5322 5319 5318 5318
5368 5360 5360 5358 5351 5351 5351 5355 5361 5361 5363 5365 5360 5354 5358 5355 5361 5368 5378 5390 5387 5391 5392 5386 5381 5381 5383 5389 5386 5383 5382 5379 5375 5379 5381 5380 5382 5372 5369 5365 5362 5360 5355 5347 5339 5335 5330 5328 5324 5320 5317 5315 5315 5314
5365 5355 5358 5353 5350 5358 5356 5357 5358 5356 5357 5358 5359 5354 5348 5354 5352 5356 5369 5376 5376 5372 5370 5370 5371 5371 5376 5380 5378 5374 5373 5375 5377 5377 5379 5376 5378 5377 5368 5359 5353 5348 5348 5345 5337 5330 5327 5323 5320 5316 5313 5311 5311 5308
5357 5353 5358 5362 5365 5365 5359 5359 5360 5362 5362 5362 5363 5355 5351 5348 5349 5365 5369 5364 5357 5356 5360 5362 5364 5366 5371 5374 5371 5373 5374 5376 5378 5379 5377 5375 5374 5372 5368 5358 5351 5349 5343 5337 5332 5328 5324 5319 5315 5310 5307 5305 5304 5301
5359 5359 5367 5363 5364 5364 5361 5365 5366 5367 5367 5363 5362 5355 5357 5357 5356 5356 5352 5351 5347 5349 5351 5355 5360 5361 5364 5367 5367 5366 5364 5366 5367 5367 5364 5360 5358 5356 5353 5350 5347 5342 5336 5331 5327 5324 5320 5315 5310 5305 5302 5300 5298 5293
5363 5362 5367 5348 5353 5359 5355 5367 5365 5367 5362 5362 5361 5358 5355 5351 5343 5339 5342 5343 5343 5348 5348 5349 5350 5353 5353 5354 5356 5356 5359 5360 5359 5355 5352 5344 5337 5333 5336 5336 5335 5330 5327 5325 5322 5318 5313 5309 5305 5300 5297 5293 5289 5287
5357 5361 5360 5356 5344 5354 5355 5353 5357 5354 5351 5352 5351 5346 5341 5335 5331 5332 5331 5334 5335 5335 5337 5340 5342 5347 5344 5346 5345 5346 5346 5348 5349 5347 5340 5334 5332 5326 5324 5323 5321 5320 5318 5315 5312 5308 5306 5302 5298 5292 5288 5283 5282 5282
5358 5357 5349 5350 5348 5345 5344 5343 5343 5344 5343 5343 5341 5342 5337 5330 5329 5327 5326 5331 5336 5338 5339 5338 5338 5337 5337 5336 5335 5334 5331 5330 5332 5331 5330 5328 5325 5322 5318 5314 5313 5311 5308 5305 5301 5298 5295 5291 5288 5283 5280 5278 5278 5279
5355 5351 5345 5343 5342 5342 5342 5341 5338 5339 5338 5337 5334 5332 5330 5330 5331 5323 5320 5323 5330 5331 5331 5329 5329 5326 5325 5324 5323 5322 5323 5319 5319 5321 5321 5318 5314 5312 5310 5308 5306 5303 5299 5296 5292 5288 5284 5281 5277 5275 5273 5273 5272 5271
5344 5340 5336 5340 5337 5339 5336 5332 5334 5332 5330 5331 5329 5329 5328 5329 5331 5315 5313 5313 5315 5315 5315 5314 5314 5314 5314 5314 5313 5313 5312 5310 5310 5311 5311 5309 5308 5306 5303 5300 5297 5294 5289 5284 5281 5278 5275 5272 5269 5268 5266 5265 5264 5263